Weather History for KIBM - November, 2013

Change the Weather History Date:

Friday, November 8, 2013

  Actual Average (KSNY) Record (KSNY)
Temperature  
Mean Temperature 48 °F 41 °F  
Max Temperature 63 °F 55 °F 81 °F (1999)
Min Temperature 33 °F 27 °F 9 °F (1956)
Degree Days  
Heating Degree Days 17 24  
Month to date heating degree days 178  
Since 1 July heating degree days 781  
Cooling Degree Days 0 0  
Month to date cooling degree days 0  
Year to date cooling degree days 830  
Moisture  
Dew Point 24 °F    
Average Humidity 45    
Maximum Humidity 83    
Minimum Humidity 18    
Precipitation  
Precipitation 0.00 in 0.02 in 0.32 in (1977)
Month to date precipitation 0.15  
Year to date precipitation 17.58  
Sea Level Pressure  
Sea Level Pressure 29.88 in    
Wind  
Wind Speed 12 mph (West)    
Max Wind Speed 40 mph    
Max Gust Speed 50 mph    
Visibility 10 miles    
Events      
T = Trace of Precipitation, MM = Missing Value Source: NWS Daily Summary

Daily Weather History Graph

Daily Weather History Graph

Search for Another Location

Airport or City:

Trip Planner

Search our weather history database for the weather conditions in past years. The results will help you decide how hot, cold, wet, or windy it might be!

Date:

Astronomy

Nov. 08, 2013 Rise Set
Actual Time 7:34 AM CST 5:41 PM CST
Civil Twilight 7:05 AM CST 6:10 PM CST
Nautical Twilight 6:32 AM CST 6:43 PM CST
Astronomical Twilight 6:00 AM CST 7:16 PM CST
Moon 12:32 PM CST (11/8) 11:05 PM CST (11/8)
Length of Visible Light 11h 05m
Length of Day
10h 07m
Waxing Crescent, 33% of the Moon is Illuminated
Nov 8
Waxing Crescent
Nov 9
First Quarter
Nov 17
Full
Nov 25
Last Quarter
Dec 2
New

Hourly Weather History & Observations

Time (CST) Temp. Windchill Dew Point Humidity Pressure Visibility Wind Dir Wind Speed Gust Speed Precip Events Conditions
12:15 AM 41.0 °F 35.8 °F 22.6 °F 48% 29.99 in 10.0 mi SSW 8.1 mph - N/A   Clear
12:35 AM 38.8 °F 32.6 °F 23.2 °F 53% 29.98 in 10.0 mi SW 9.2 mph - N/A   Clear
12:55 AM 38.7 °F 31.4 °F 23.2 °F 54% 29.96 in 10.0 mi SW 11.5 mph - N/A   Clear
1:15 AM 36.0 °F 29.0 °F 23.9 °F 62% 29.95 in 10.0 mi SW 9.2 mph - N/A   Clear
1:35 AM 36.5 °F 28.7 °F 23.4 °F 59% 29.94 in 10.0 mi SSW 11.5 mph - N/A   Clear
1:55 AM 38.5 °F 31.6 °F 23.0 °F 54% 29.93 in 10.0 mi SW 10.4 mph - N/A   Clear
2:15 AM 36.5 °F 31.0 °F 23.7 °F 60% 29.91 in 10.0 mi SW 6.9 mph - N/A   Clear
2:35 AM 34.2 °F 26.8 °F 24.4 °F 68% 29.90 in 10.0 mi SW 9.2 mph - N/A   Clear
2:55 AM 39.4 °F 31.4 °F 23.7 °F 54% 29.88 in 10.0 mi SW 13.8 mph - N/A   Clear
3:15 AM 39.9 °F 33.4 °F 23.7 °F 52% 29.87 in 10.0 mi SW 10.4 mph - N/A   Clear
3:35 AM 39.6 °F 33.0 °F 24.3 °F 54% 29.86 in 10.0 mi WSW 10.4 mph - N/A   Clear
3:55 AM 40.3 °F 33.4 °F 24.4 °F 53% 29.85 in 10.0 mi WSW 11.5 mph - N/A   Clear
4:15 AM 41.0 °F 34.7 °F 24.6 °F 52% 29.84 in 10.0 mi WSW 10.4 mph - N/A   Clear
4:35 AM 39.4 °F 32.7 °F 24.8 °F 56% 29.83 in 10.0 mi WSW 10.4 mph - N/A   Clear
4:55 AM 40.6 °F 35.4 °F 24.4 °F 53% 29.83 in 10.0 mi WSW 8.1 mph - N/A   Clear
5:15 AM 39.2 °F 34.2 °F 24.4 °F 56% 29.82 in 10.0 mi SW 6.9 mph - N/A   Clear
5:35 AM 44.1 °F 39.5 °F 23.7 °F 45% 29.83 in 10.0 mi West 8.1 mph 16.1 mph N/A   Clear
5:55 AM 37.4 °F 30.3 °F 25.0 °F 61% 29.84 in 10.0 mi WNW 10.4 mph - N/A   Clear
6:15 AM 35.6 °F 28.0 °F 24.6 °F 64% 29.83 in 10.0 mi West 10.4 mph - N/A   Clear
6:35 AM 37.8 °F 29.8 °F 24.4 °F 59% 29.84 in 10.0 mi West 12.7 mph - N/A   Clear
6:55 AM 38.1 °F 30.2 °F 23.9 °F 57% 29.83 in 10.0 mi West 12.7 mph - N/A   Clear
7:15 AM 38.3 °F 31.4 °F 23.9 °F 56% 29.84 in 10.0 mi West 10.4 mph - N/A   Clear
7:35 AM 39.7 °F 33.7 °F 23.9 °F 53% 29.84 in 10.0 mi West 9.2 mph - N/A   Clear
7:55 AM 38.1 °F 32.9 °F 24.8 °F 59% 29.86 in 10.0 mi West 6.9 mph - N/A   Clear
8:15 AM 40.8 °F 36.9 °F 25.5 °F 55% 29.86 in 10.0 mi West 5.8 mph - N/A   Clear
8:35 AM 44.8 °F 38.3 °F 25.0 °F 46% 29.85 in 10.0 mi West 13.8 mph - N/A   Clear
8:55 AM 49.6 °F - 22.6 °F 35% 29.87 in 10.0 mi West 9.2 mph - N/A   Clear
9:15 AM 48.6 °F - 23.9 °F 38% 29.87 in 10.0 mi West 8.1 mph - N/A   Clear
9:35 AM 48.7 °F - 25.7 °F 41% 29.87 in 10.0 mi WSW 11.5 mph - N/A   Clear
9:55 AM 52.0 °F - 24.3 °F 34% 29.87 in 10.0 mi WSW 12.7 mph - N/A   Clear
10:15 AM 53.8 °F - 23.7 °F 31% 29.86 in 10.0 mi WSW 13.8 mph - N/A   Clear
10:35 AM 54.3 °F - 22.8 °F 29% 29.85 in 10.0 mi WSW 11.5 mph - N/A   Clear
10:55 AM 54.9 °F - 23.0 °F 29% 29.86 in 10.0 mi WSW 9.2 mph - N/A   Clear
11:15 AM 56.1 °F - 23.7 °F 29% 29.86 in 10.0 mi WSW 6.9 mph - N/A   Clear
11:35 AM 59.2 °F - 20.7 °F 23% 29.87 in 10.0 mi West 11.5 mph - N/A   Clear
11:55 AM 58.1 °F - 21.0 °F 24% 29.86 in 10.0 mi West 15.0 mph - N/A   Clear
12:15 PM 60.1 °F - 21.9 °F 23% 29.84 in 10.0 mi West 17.3 mph 25.3 mph N/A   Clear
12:35 PM 61.0 °F - 21.7 °F 22% 29.83 in 10.0 mi WNW 33.4 mph 39.1 mph N/A   Clear
12:55 PM 61.7 °F - 21.0 °F 21% 29.83 in 10.0 mi West 32.2 mph 40.3 mph N/A   Clear
1:15 PM 62.6 °F - 21.6 °F 21% 29.81 in 10.0 mi West 36.8 mph 42.6 mph N/A   Clear
1:35 PM 63.0 °F - 20.5 °F 20% 29.81 in 10.0 mi WNW 35.7 mph 43.7 mph N/A   Clear
1:55 PM 63.5 °F - 19.4 °F 18% 29.81 in 10.0 mi West 40.3 mph 48.3 mph N/A   Clear
2:15 PM 63.0 °F - 19.6 °F 19% 29.80 in 10.0 mi WNW 34.5 mph 49.5 mph N/A   Clear
2:35 PM 62.8 °F - 19.2 °F 19% 29.80 in 10.0 mi WNW 29.9 mph 38.0 mph N/A   Clear
2:55 PM 62.6 °F - 18.5 °F 18% 29.81 in 10.0 mi West 32.2 mph 40.3 mph N/A   Clear
3:15 PM 62.2 °F - 19.2 °F 19% 29.82 in 10.0 mi West 29.9 mph 36.8 mph N/A   Clear
3:35 PM 62.1 °F - 19.8 °F 20% 29.82 in 10.0 mi West 29.9 mph 34.5 mph N/A   Clear
3:55 PM 60.8 °F - 20.1 °F 21% 29.83 in 10.0 mi WNW 23.0 mph 32.2 mph N/A   Clear
4:15 PM 59.9 °F - 21.0 °F 22% 29.83 in 10.0 mi WNW 18.4 mph 27.6 mph N/A   Clear
4:35 PM 60.4 °F - 22.6 °F 23% 29.85 in 10.0 mi NW 13.8 mph - N/A   Clear
4:55 PM 58.1 °F - 23.0 °F 26% 29.85 in 10.0 mi NW 10.4 mph 21.9 mph N/A   Clear
5:15 PM 57.6 °F - 22.1 °F 25% 29.85 in 10.0 mi WNW 23.0 mph 29.9 mph N/A   Clear
5:35 PM 55.9 °F - 22.5 °F 27% 29.86 in 10.0 mi NW 13.8 mph 21.9 mph N/A   Clear
5:55 PM 54.0 °F - 23.0 °F 30% 29.87 in 10.0 mi NW 10.4 mph - N/A   Clear
6:15 PM 50.9 °F - 24.3 °F 35% 29.89 in 10.0 mi NW 6.9 mph - N/A   Clear
6:35 PM 47.7 °F - 25.3 °F 42% 29.89 in 10.0 mi West 12.7 mph - N/A   Clear
6:55 PM 52.2 °F - 23.4 °F 33% 29.88 in 10.0 mi WNW 18.4 mph 23.0 mph N/A   Clear
7:15 PM 52.7 °F - 23.0 °F 31% 29.90 in 10.0 mi NW 10.4 mph 21.9 mph N/A   Clear
7:35 PM 46.2 °F 43.3 °F 25.7 °F 45% 29.93 in 10.0 mi NE 5.8 mph - N/A   Clear
7:55 PM 49.3 °F - 27.5 °F 43% 29.92 in 10.0 mi North 12.7 mph 18.4 mph N/A   Clear
8:15 PM 45.0 °F 41.8 °F 29.3 °F 54% 29.93 in 10.0 mi NNE 5.8 mph - N/A   Clear
8:35 PM 40.6 °F 36.0 °F 30.4 °F 67% 29.94 in 10.0 mi NE 6.9 mph - N/A   Clear
8:55 PM 40.3 °F 37.1 °F 29.8 °F 66% 29.95 in 10.0 mi East 4.6 mph - N/A   Clear
9:15 PM 36.5 °F 32.7 °F 29.5 °F 76% 29.95 in 10.0 mi NE 4.6 mph - N/A   Clear
9:35 PM 35.4 °F 30.5 °F 28.6 °F 76% 29.96 in 10.0 mi ENE 5.8 mph - N/A   Clear
9:55 PM 35.4 °F 30.5 °F 29.5 °F 79% 29.97 in 10.0 mi NNE 5.8 mph - N/A   Clear
10:15 PM 35.4 °F - 28.8 °F 77% 29.98 in 10.0 mi Calm Calm - N/A   Clear
10:35 PM 33.3 °F 28.9 °F 28.6 °F 83% 29.99 in 10.0 mi South 4.6 mph - N/A   Scattered Clouds
10:55 PM 34.7 °F 28.1 °F 29.7 °F 82% 30.00 in 10.0 mi SSW 8.1 mph - N/A   Mostly Cloudy
11:15 PM 37.6 °F 33.1 °F 30.9 °F 77% 30.01 in 10.0 mi South 5.8 mph - N/A   Overcast
11:35 PM 38.8 °F 33.8 °F 30.9 °F 73% 30.02 in 10.0 mi SSW 6.9 mph - N/A   Overcast
11:55 PM 39.2 °F 34.2 °F 31.1 °F 73% 30.02 in 10.0 mi SSW 6.9 mph - N/A   Overcast